Regional Weather Roundup
Issued by NWS

Home | Current Version | Previous Version | Text Only | Print | Product List | Glossary On
Versions: 1 2 3 4 5 6 7 8 9 10 11 12 13 14 15 16 17 18 19 20 21 22 23 24 25 26 27 28 29 30 31 32 33 34 35 36 37 38 39 40 41 42 43 44 45 46 47 48 49 50
000
ASCA44 KEWX 250320
RWRMX

LATIN AMERICA AND CARIBBEAN REGIONAL WEATHER ROUNDUP
NATIONAL WEATHER SERVICE AUSTIN/SAN ANTONIO TX
1000 PM CDT TUE MAY 24 2016

NOTE: "FAIR" INDICATED FEW OR NO CLOUDS BELOW 12,000 FEET WITH NO
SIGNIFICANT WEATHER AND/OR OBSTRUCTIONS TO VISIBILITY.

BAJA CALIFORNIA

CITY           SKY/WX    TMP DP  RH WIND       PRES   REMARKS
LA PAZ         MOCLDY    79  52  38 S14       29.93R
MEXICALI       CLEAR     73  39  29 W14       29.88R
S.J. DEL CABO  MOCLDY    79  66  65 SE5       29.92S
TIJUANA        MOCLDY    61  50  67 W9        30.07R

NORTHWESTERN MEXICO

CITY           SKY/WX    TMP DP  RH WIND       PRES   REMARKS
CULIACAN       CLOUDY    84  70  61 SW7       29.92R
DURANGO        MOCLDY    79  25  13 SW9       30.23R
GUAYMAS          N/A    N/A N/A N/A MISG        N/A
HERMOSILLO     PTCLDY    81  41  24 SW6       29.93S
CD. JUAREZ     MOCLDY    82  27  13 W13G25    29.92R
LOS MOCHIS     MOCLDY    81  52  36 CALM      29.91S

NORTHEASTERN MEXICO

CITY           SKY/WX    TMP DP  RH WIND       PRES   REMARKS
CHIHUAHUA      CLOUDY    81  36  19 SW21      30.09R
MONCLOVA         N/A    N/A N/A N/A MISG        N/A
MONTERREY      MOCLDY    82  72  69 SE6       29.93R
REYNOSA        CLEAR     79  72  78 SE5       29.92R
SALTILLO       PTCLDY    79  57  47 NE6       30.17R
TORREON        PTCLDY    93  37  14 CALM      29.96S
CD. VICTORIA     N/A    N/A N/A N/A MISG        N/A

WESTERN MEXICO

CITY           SKY/WX    TMP DP  RH WIND       PRES   REMARKS
AGUASCALIENTES CLEAR     77  19  11 SE6       30.22R
COLIMA         PTCLDY    77  66  69 CALM      30.03R
DEL BAJIO      PTCLDY    77  46  33 SE7       30.26R
GUADALAJARA    CLEAR     82  45  26 W13       30.16R
MAZATLAN       MOCLDY    79  72  78 W3        29.90R
P. VALLARTA    CLEAR     79  75  89 SW7       29.91R
URUAPAN          N/A    N/A N/A N/A MISG        N/A
ZACATECAS      MOCLDY    73  32  21 W7        30.29R

CENTRAL MEXICO

CITY           SKY/WX    TMP DP  RH WIND       PRES   REMARKS
CUERNAVACA       N/A    N/A N/A N/A MISG        N/A
MEXICO CITY    TSTM      61  54  77 E9        30.48R
MORELIA        PTCLDY    72  55  56 CALM      30.24R
POZA RICA        N/A    N/A N/A N/A MISG        N/A
QUERETARO      MOCLDY    75  48  38 E12       30.32R
S. LUIS POTOSI PTCLDY    75  61  60 SE9       30.21R
TAMPICO        MOCLDY    82  79  89 SE7       29.91R HX  93
TOLUCA         CLOUDY    63  52  67 CALM      30.50R

SOUTHERN MEXICO

CITY           SKY/WX    TMP DP  RH WIND       PRES   REMARKS
ACAPULCO       PTCLDY    84  77  79 SW3       29.89R HX  94
B. DE HUATULCO   N/A    N/A N/A N/A MISG        N/A
P. ESCONDIDO     N/A    N/A N/A N/A MISG        N/A
VERACRUZ       PTCLDY    84  81  89 CALM      29.89R HX  98
ZIHUATANEJO      N/A    N/A N/A N/A MISG        N/A

YUCATAN PENINSULA

CITY           SKY/WX    TMP DP  RH WIND       PRES   REMARKS
CAMPECHE       CLEAR     90  79  70 NE12      29.88R HX 105
CANCUN         CLEAR     82  75  78 E5        30.03R
CHETUMAL       PTCLDY    86  75  70 E12       29.99R HX  95
CD. DEL CARMEN   N/A    N/A N/A N/A MISG        N/A
COZUMEL        PTCLDY    79  77  94 E6        30.02S
MERIDA         CLEAR     86  73  66 NE9       29.95R HX  93
MINATITLAN       N/A    N/A N/A N/A MISG        N/A
TAPACHULA      MOCLDY    81  77  89 CALM      29.86F
TUX. GUTIERREZ PTCLDY    81  72  74 CALM      29.95R
VILLAHERMOSA   CLEAR     84  79  84 CALM      29.89R HX  96

CENTRAL AMERICA

CITY           SKY/WX    TMP DP  RH WIND       PRES   REMARKS
MANAGUA        PTCLDY    88  77  70 SE9       29.92  HX 100

CARIBBEAN

CITY           SKY/WX    TMP DP  RH WIND       PRES   REMARKS
ARUBA          PTCLDY    82  77  83 E22       29.94R HX  91
KINGSTON       TSTM      77  73  88 N17       30.06
NASSAU         PTCLDY    79  75  89 NE7       30.15R
SAN JUAN       PTCLDY    81  75  83 E8        30.13R
SANTO DOMINGO  PTCLDY    77  73  88 E5        30.09S
ST. CROIX      CLOUDY    81  73  78 NE8       30.12R
ST. THOMAS     CLEAR     82  75  78 E7        30.12R

$$





USA.gov is the U.S. government's official web portal to all federal, state and local government web resources and services.